Tracking 34408 objects as of 13-Jun-2026
HD Live streaming from Space Station
objects crossing your sky now

DELTA 1 DEB

Track DELTA 1 DEB now!
10-day predictions


NORAD ID: 42646
Int'l Code: 1975-052MF
Perigee: 1,090.7 km
Apogee: 1,171.1 km
Inclination: 100.0 °
Period: 107.8 minutes
Semi major axis: 7501 km
RCS: Unknown
Launch date: June 12, 1975
Source: United States (US)
Launch site: AIR FORCE WESTERN TEST RANGE (AFWTR)

Note: This is SATELLITE DEBRIS
Your satellite tracking list
Your tracking list is empty




NASA's NSSDC Master Catalog

Two Line Element Set (TLE):
1 42646U 75052MF  26163.49101517  .00000063  00000-0  20828-3 0  9999
2 42646 100.0103  80.4701 0053544 226.9587 132.7047 13.36124884566448
Source of the keplerian elements: AFSPC